N80FC KDEN-KSAN

Flight info

Callsign N80FC
Flight time N/A
Altitude 43000
Route TTRUE LUCKI1
Aircraft C700/M-SBDGHM1RWXY/LB2

Departure

Time N/A
Airport Denver International Airport (KDEN)

Arrival

Time 2026-05-05 03:06
Airport San Diego International Airport (KSAN)
Time Latitude Longitude Altitude Speed Heading
2026-05-05 02:06 36.06273 -111.84129 42886 ft 380 kts 244°
2026-05-05 02:06 36.04093 -111.90092 42933 ft 381 kts 245°
2026-05-05 02:07 36.01884 -111.96032 42984 ft 379 kts 245°
2026-05-05 02:07 35.99681 -112.01918 43011 ft 377 kts 245°
2026-05-05 02:08 35.97505 -112.07748 43023 ft 376 kts 245°
2026-05-05 02:08 35.95323 -112.13599 43033 ft 375 kts 245°
2026-05-05 02:09 35.93149 -112.19500 43037 ft 381 kts 245°
2026-05-05 02:09 35.90951 -112.25517 43032 ft 386 kts 245°
2026-05-05 02:10 35.88755 -112.31547 42993 ft 383 kts 245°
2026-05-05 02:10 35.86585 -112.37516 42951 ft 380 kts 245°
2026-05-05 02:11 35.84429 -112.43451 42900 ft 378 kts 245°
2026-05-05 02:11 35.82290 -112.49359 42876 ft 381 kts 245°
2026-05-05 02:12 35.79067 -112.58336 42865 ft 382 kts 245°
2026-05-05 02:13 35.76935 -112.64285 42861 ft 382 kts 245°
2026-05-05 02:13 35.74194 -112.69871 42862 ft 381 kts 235°
2026-05-05 02:14 35.70898 -112.74988 42849 ft 380 kts 234°
2026-05-05 02:14 35.67631 -112.80103 42852 ft 380 kts 233°
2026-05-05 02:15 35.64345 -112.85190 42850 ft 379 kts 233°
2026-05-05 02:15 35.61071 -112.90275 42849 ft 379 kts 233°
2026-05-05 02:16 35.57795 -112.95345 42848 ft 378 kts 233°
2026-05-05 02:16 35.54516 -113.00416 42847 ft 380 kts 233°
2026-05-05 02:17 35.51211 -113.05521 42854 ft 383 kts 233°
2026-05-05 02:17 35.47902 -113.10620 42867 ft 385 kts 233°
2026-05-05 02:18 35.44567 -113.15756 42848 ft 383 kts 232°
2026-05-05 02:18 35.41257 -113.20843 42846 ft 380 kts 232°
2026-05-05 02:19 35.37970 -113.25888 42832 ft 376 kts 233°
2026-05-05 02:19 35.34704 -113.30895 42829 ft 376 kts 233°
2026-05-05 02:20 35.31420 -113.35922 42835 ft 379 kts 232°
2026-05-05 02:20 35.28111 -113.40979 42826 ft 381 kts 232°
2026-05-05 02:21 35.24780 -113.46064 42836 ft 385 kts 232°
2026-05-05 02:21 35.21432 -113.51163 42824 ft 386 kts 232°
2026-05-05 02:22 35.18081 -113.56263 42840 ft 384 kts 232°
2026-05-05 02:22 35.14743 -113.61335 42817 ft 382 kts 232°
2026-05-05 02:23 35.11420 -113.66377 42810 ft 380 kts 232°
2026-05-05 02:23 35.08105 -113.71399 42811 ft 380 kts 232°
2026-05-05 02:24 35.04772 -113.76443 42810 ft 383 kts 232°
2026-05-05 02:24 35.01410 -113.81522 42813 ft 386 kts 232°
2026-05-05 02:25 34.98024 -113.86629 42818 ft 387 kts 232°
2026-05-05 02:25 34.94646 -113.91717 42811 ft 385 kts 232°
2026-05-05 02:26 34.91300 -113.96748 42807 ft 384 kts 232°
2026-05-05 02:26 34.87948 -114.01786 42809 ft 383 kts 232°
2026-05-05 02:27 34.84589 -114.06821 42804 ft 383 kts 232°
2026-05-05 02:27 34.81225 -114.11861 42814 ft 384 kts 231°
2026-05-05 02:28 34.77852 -114.16905 42824 ft 384 kts 231°
2026-05-05 02:28 34.74471 -114.21954 42836 ft 385 kts 231°
2026-05-05 02:29 34.71087 -114.27000 42839 ft 385 kts 232°
2026-05-05 02:29 34.67709 -114.32031 42854 ft 384 kts 232°
2026-05-05 02:30 34.64357 -114.37015 42857 ft 383 kts 232°
2026-05-05 02:30 34.60885 -114.41915 42827 ft 383 kts 230°
2026-05-05 02:31 34.57375 -114.46786 42832 ft 383 kts 230°
2026-05-05 02:31 34.53862 -114.51642 42828 ft 383 kts 230°
2026-05-05 02:32 34.50344 -114.56491 42827 ft 387 kts 230°
2026-05-05 02:32 34.46780 -114.61409 42825 ft 388 kts 230°
2026-05-05 02:33 34.43222 -114.66305 42824 ft 386 kts 230°
2026-05-05 02:33 34.39685 -114.71167 42819 ft 383 kts 230°
2026-05-05 02:34 34.36163 -114.76000 42812 ft 380 kts 230°
2026-05-05 02:34 34.32662 -114.80796 42816 ft 381 kts 230°
2026-05-05 02:35 34.29165 -114.85575 42823 ft 383 kts 230°
2026-05-05 02:35 34.25617 -114.90419 42826 ft 386 kts 230°
2026-05-05 02:36 34.22047 -114.95284 42828 ft 386 kts 230°
2026-05-05 02:36 34.18487 -115.00130 42827 ft 385 kts 230°
2026-05-05 02:37 34.14929 -115.04967 42841 ft 384 kts 230°
2026-05-05 02:37 34.11380 -115.09786 42839 ft 384 kts 230°
2026-05-05 02:38 34.07838 -115.14596 42423 ft 390 kts 230°
2026-05-05 02:38 34.06035 -115.17030 41913 ft 388 kts 229°
2026-05-05 02:38 34.04253 -115.19437 41387 ft 381 kts 229°
2026-05-05 02:38 34.02512 -115.21793 40912 ft 372 kts 229°
2026-05-05 02:39 34.00811 -115.24095 40427 ft 362 kts 229°
2026-05-05 02:39 33.99148 -115.26342 39943 ft 353 kts 229°
2026-05-05 02:39 33.97531 -115.28527 39492 ft 345 kts 228°
2026-05-05 02:39 33.95952 -115.30673 39038 ft 340 kts 229°
2026-05-05 02:40 33.94391 -115.32794 38595 ft 338 kts 228°
2026-05-05 02:40 33.92832 -115.34906 38115 ft 346 kts 228°
2026-05-05 02:40 33.91205 -115.37103 37654 ft 357 kts 228°
2026-05-05 02:40 33.89532 -115.39366 37186 ft 365 kts 228°
2026-05-05 02:41 33.87845 -115.41651 36705 ft 365 kts 227°
2026-05-05 02:41 33.86165 -115.43922 36220 ft 362 kts 227°
2026-05-05 02:41 33.84495 -115.46176 35743 ft 360 kts 227°
2026-05-05 02:41 33.82835 -115.48415 35269 ft 357 kts 227°
2026-05-05 02:42 33.81182 -115.50644 34796 ft 357 kts 227°
2026-05-05 02:42 33.79530 -115.52872 34337 ft 358 kts 227°
2026-05-05 02:42 33.77865 -115.55114 33850 ft 361 kts 227°
2026-05-05 02:42 33.76187 -115.57372 33356 ft 363 kts 227°
2026-05-05 02:43 33.74503 -115.59637 32873 ft 364 kts 227°
2026-05-05 02:43 33.72812 -115.61911 32393 ft 365 kts 227°
2026-05-05 02:43 33.71111 -115.64197 31947 ft 367 kts 227°
2026-05-05 02:43 33.69420 -115.66458 31424 ft 370 kts 227°
2026-05-05 02:44 33.67679 -115.68748 30941 ft 372 kts 227°
2026-05-05 02:44 33.65927 -115.71051 30446 ft 374 kts 227°
2026-05-05 02:44 33.64175 -115.73369 29948 ft 375 kts 227°
2026-05-05 02:44 33.62447 -115.75718 29419 ft 375 kts 229°
2026-05-05 02:45 33.60866 -115.78228 28925 ft 380 kts 233°
2026-05-05 02:45 33.59363 -115.80859 28429 ft 385 kts 233°
2026-05-05 02:45 33.57820 -115.83523 27911 ft 392 kts 234°
2026-05-05 02:45 33.56794 -115.85295 27568 ft 390 kts 234°
2026-05-05 02:46 33.55253 -115.87958 27055 ft 386 kts 234°
2026-05-05 02:46 33.53729 -115.90600 26551 ft 384 kts 234°
2026-05-05 02:46 33.52204 -115.93239 26046 ft 385 kts 234°
2026-05-05 02:46 33.50671 -115.95886 25585 ft 386 kts 234°
2026-05-05 02:47 33.49142 -115.98524 25081 ft 385 kts 234°
2026-05-05 02:47 33.47620 -116.01152 24607 ft 383 kts 234°
2026-05-05 02:47 33.46118 -116.03741 24150 ft 383 kts 235°
2026-05-05 02:47 33.44600 -116.06358 23680 ft 383 kts 235°
2026-05-05 02:48 33.43072 -116.08987 23165 ft 384 kts 235°
2026-05-05 02:48 33.41548 -116.11612 22692 ft 384 kts 235°
2026-05-05 02:48 33.40024 -116.14231 22227 ft 383 kts 235°
2026-05-05 02:48 33.38499 -116.16852 21759 ft 383 kts 235°
2026-05-05 02:49 33.36975 -116.19465 21299 ft 383 kts 234°
2026-05-05 02:49 33.35319 -116.21958 20823 ft 382 kts 228°
2026-05-05 02:49 33.33422 -116.24188 20352 ft 382 kts 222°
2026-05-05 02:49 33.31325 -116.26128 19901 ft 381 kts 216°
2026-05-05 02:50 33.29036 -116.27769 19451 ft 387 kts 210°
2026-05-05 02:50 33.26595 -116.29193 18972 ft 391 kts 208°
2026-05-05 02:50 33.24158 -116.30618 18490 ft 389 kts 208°
2026-05-05 02:50 33.21744 -116.32042 17978 ft 385 kts 208°
2026-05-05 02:51 33.19352 -116.33445 17503 ft 382 kts 208°
2026-05-05 02:51 33.17007 -116.34813 17011 ft 378 kts 208°
2026-05-05 02:51 33.14681 -116.36170 16513 ft 363 kts 208°
2026-05-05 02:51 33.12473 -116.37459 16076 ft 341 kts 208°
2026-05-05 02:52 33.10419 -116.38661 15695 ft 318 kts 208°
2026-05-05 02:52 33.08484 -116.39792 15316 ft 303 kts 208°
2026-05-05 02:52 33.06611 -116.40886 14945 ft 298 kts 208°
2026-05-05 02:52 33.04752 -116.41970 14580 ft 298 kts 208°
2026-05-05 02:53 33.02886 -116.43058 14220 ft 301 kts 208°
2026-05-05 02:53 33.01011 -116.44196 13833 ft 302 kts 212°
2026-05-05 02:53 32.99319 -116.45657 13441 ft 299 kts 221°
2026-05-05 02:53 32.97749 -116.47259 13067 ft 295 kts 221°
2026-05-05 02:54 32.96192 -116.48834 12705 ft 293 kts 221°
2026-05-05 02:54 32.94637 -116.50391 12350 ft 291 kts 221°
2026-05-05 02:54 32.93087 -116.51947 12010 ft 292 kts 221°
2026-05-05 02:54 32.91551 -116.53511 11647 ft 290 kts 222°
2026-05-05 02:55 32.90010 -116.55063 11292 ft 289 kts 222°
2026-05-05 02:55 32.88506 -116.56571 10943 ft 275 kts 222°
2026-05-05 02:55 32.87083 -116.58011 10617 ft 262 kts 223°
2026-05-05 02:55 32.85711 -116.59388 10309 ft 255 kts 223°
2026-05-05 02:56 32.84363 -116.60742 9997 ft 253 kts 223°
2026-05-05 02:56 32.83030 -116.62089 9668 ft 256 kts 223°
2026-05-05 02:56 32.81671 -116.63458 9352 ft 256 kts 223°
2026-05-05 02:56 32.80309 -116.64833 9035 ft 257 kts 223°
2026-05-05 02:57 32.78940 -116.66209 8717 ft 259 kts 223°
2026-05-05 02:57 32.77630 -116.67667 8395 ft 257 kts 231°
2026-05-05 02:57 32.76615 -116.69408 8080 ft 256 kts 242°
2026-05-05 02:57 32.75755 -116.71258 7769 ft 254 kts 242°
2026-05-05 02:58 32.74886 -116.73088 7453 ft 255 kts 242°
2026-05-05 02:58 32.74012 -116.74922 7142 ft 254 kts 243°
2026-05-05 02:58 32.73147 -116.76747 6835 ft 253 kts 243°
2026-05-05 02:58 32.72288 -116.78563 6523 ft 251 kts 244°
2026-05-05 02:59 32.71441 -116.80342 6196 ft 243 kts 243°
2026-05-05 02:59 32.70657 -116.82078 5893 ft 233 kts 249°
2026-05-05 02:59 32.70118 -116.83858 5641 ft 225 kts 253°
2026-05-05 02:59 32.69583 -116.85577 5385 ft 219 kts 251°
2026-05-05 03:00 32.69050 -116.87251 5119 ft 214 kts 250°
2026-05-05 03:00 32.68561 -116.88896 5000 ft 206 kts 253°
2026-05-05 03:00 32.68099 -116.90474 4994 ft 205 kts 251°
2026-05-05 03:00 32.67620 -116.92072 4990 ft 205 kts 253°
2026-05-05 03:01 32.67408 -116.93721 4986 ft 201 kts 270°
2026-05-05 03:01 32.67600 -116.95407 4608 ft 213 kts 284°
2026-05-05 03:01 32.68041 -116.97110 4165 ft 218 kts 285°
2026-05-05 03:01 32.68457 -116.98817 3698 ft 208 kts 284°
2026-05-05 03:02 32.68835 -117.00375 3221 ft 189 kts 284°
2026-05-05 03:02 32.69186 -117.01825 3008 ft 184 kts 285°
2026-05-05 03:02 32.69553 -117.03331 2792 ft 192 kts 284°
2026-05-05 03:02 32.69913 -117.04791 2551 ft 178 kts 284°
2026-05-05 03:03 32.70241 -117.06133 2314 ft 162 kts 285°
2026-05-05 03:03 32.70545 -117.07389 2108 ft 156 kts 285°
2026-05-05 03:03 32.70844 -117.08619 1954 ft 153 kts 284°
2026-05-05 03:03 32.71124 -117.09759 1768 ft 141 kts 283°
2026-05-05 03:04 32.71381 -117.10817 1519 ft 126 kts 284°
2026-05-05 03:04 32.71613 -117.11767 1309 ft 116 kts 282°
2026-05-05 03:04 32.71839 -117.12686 1142 ft 118 kts 282°
2026-05-05 03:04 32.72056 -117.13601 956 ft 114 kts 282°
2026-05-05 03:05 32.72261 -117.14487 765 ft 108 kts 282°
2026-05-05 03:05 32.72481 -117.15344 611 ft 110 kts 284°
2026-05-05 03:05 32.72705 -117.16243 457 ft 116 kts 283°
2026-05-05 03:05 32.72912 -117.17145 258 ft 111 kts 284°
2026-05-05 03:06 32.73121 -117.18005 47 ft 102 kts 283°
2026-05-05 03:06 32.73287 -117.18695 17 ft 64 kts 285°
2026-05-05 03:06 32.73371 -117.19016 20 ft 20 kts 287°
2026-05-05 03:06 32.73440 -117.19084 18 ft 13 kts 22°
2026-05-05 03:07 32.73472 -117.18958 18 ft 22 kts 105°
2026-05-05 03:07 32.73418 -117.18751 20 ft 30 kts 108°
2026-05-05 03:07 32.73359 -117.18508 18 ft 30 kts 106°
2026-05-05 03:07 32.73315 -117.18326 16 ft 25 kts 105°
2026-05-05 03:08 32.73263 -117.18114 16 ft 28 kts 106°
2026-05-05 03:08 32.73289 -117.17974 18 ft 18 kts 20°
2026-05-05 03:08 32.73409 -117.17930 20 ft 12 kts 31°
2026-05-05 03:08 32.73397 -117.17883 21 ft 0 kts 142°
2026-05-05 03:12 37.62779 -122.38434 11 ft 0 kts 300°